National Weather Service Hourly Weather Roundup
NOAA NWS Hourly Roundups by Site
NOAA NWS Hourly Roundups by Site
Regional Weather Roundup for Sacramento, CA

To Select Another Site Choose from List

Select Site:  

000
ASUS46 KSTO 060609
RWRCA

NORTHERN AND CENTRAL CA REGIONAL WEATHER ROUNDUP
NATIONAL WEATHER SERVICE SACRAMENTO CA
1100 PM PDT WED MAY 05 2021

NOTE: FAIR INDICATES FEW OR NO CLOUDS BELOW 12,000 FEET WITH NO
SIGNIFICANT WEATHER AND/OR OBSTRUCTIONS TO VISIBILITY.

CAZ001-003-060700-
NORTHWEST AREA

CITY           SKY/WX    TMP DP  RH WIND       PRES   REMARKS
CRESCENT CITY  CLOUDY    49  48  97 S7        30.00S
ARCATA         NOT AVBL
SHELTER COVE   NOT AVBL
UKIAH          CLEAR     61  44  53 CALM      29.96R
$$

CAZ006-505>513-060700-
BAY AREA

CITY           SKY/WX    TMP DP  RH WIND       PRES   REMARKS
SANTA ROSA     CLOUDY    49  47  93 SE5       29.99R
SAN RAFAEL     N/A       53  MM  MM MISG
NAPA           CLEAR     50  47  89 W12       29.98R
CONCORD        CLEAR     57  46  66 S13       29.97R
OAKLAND CITY   N/A       52  MM  MM MISG
OAKLAND        CLOUDY    52  47  83 NW10      30.02S
SAN FRAN CITY  N/A       50  MM  95 MISG
SAN FRAN ARPT  MOCLDY    52  47  83 W8        30.02R
LIVERMORE      CLEAR     54  46  74 NW8       29.98R
HAYWARD        CLOUDY    53  48  83 NW6       30.02R
REDWOOD CITY   N/A       57  MM  69 MISG
MOFFETT ARPT   NOT AVBL
SAN JOSE ARPT  PTCLDY    54  48  80 NW3       30.01S
$$
CAZ034-037-514>518-060700-
CENTRAL COAST

CITY           SKY/WX    TMP DP  RH WIND       PRES   REMARKS
WATSONVILLE    CLOUDY    50  49  96 SW3       30.03S
SALINAS        CLOUDY    52  49  89 NW5       30.03R
MONTEREY       CLOUDY    53  49  86 W5        30.04R
PT PIEDRAS BLS NOT AVBL
SAN LUIS OBISP CLOUDY    51  50  96 W3        30.01R
SANTA MARIA    FOG       50  48  93 CALM      30.01R VSB 1/2
HALF MOON BAY  CLOUDY    50  48  93 NW3       30.05R
$$
CAZ015-016-060700-
NORTHERN SACRAMENTO VALLEY

CITY           SKY/WX    TMP DP  RH WIND       PRES   REMARKS
REDDING        CLEAR     72  43  35 NE6       29.82S
RED BLUFF      CLEAR     76  42  29 S9        29.83R
OROVILLE       CLEAR     80  42  25 SE13      29.87R
$$
CAZ016>018-060700-
SOUTHERN SACRAMENTO VALLEY

CITY           SKY/WX    TMP DP  RH WIND       PRES   REMARKS
AUBURN         CLEAR     72  43  35 SE7       29.96S
BEALE AFB      CLEAR     74  41  30 SE12      29.87R
LINCOLN          N/A     72  45  37 S7        29.88R VSB 1
MARYSVILLE     CLEAR     73  47  39 E8        29.87R
SAC INTL ARPT  CLEAR     61  48  62 S13       29.88R
MATHER AIRPORT CLEAR     66  46  48 S10       29.89R
DOWNTOWN SAC   N/A       65  MM  MM MISG
SAC EXEC ARPT  CLEAR     60  49  66 SW10      29.91R
VACAVILLE      CLEAR     61  46  57 S5        29.91R
TRAVIS AFB     CLEAR     54  48  80 SW24      29.92R
$$
CAZ019>021-060700-
SAN JOAQUIN VALLEY

CITY           SKY/WX    TMP DP  RH WIND       PRES   REMARKS
STOCKTON       CLEAR     65  48  54 NW8       29.91R
MODESTO        CLEAR     72  42  34 NW9       29.90R
MERCED         CLEAR     71  48  43 W5        29.90R
LEMOORE        CLEAR     71  44  37 W6        29.90R
FRESNO         CLEAR     80  43  26 N7        29.90R
HANFORD        CLEAR     76  47  35 N6        29.91R
PORTERVILLE    CLEAR     76  39  26 SE6       29.94R
BAKERSFIELD    CLEAR     80  33  18 NE12      29.92R
$$
CAZ011-012-071-060700-
NORTHERN MOUNTAINS

CITY           SKY/WX    TMP DP  RH WIND       PRES   REMARKS
YREKA          CLEAR     62  37  39 E6        29.93R
MOUNT SHASTA   CLEAR     53  36  52 CALM      29.99S
ALTURAS        CLEAR     52  36  54 CALM      30.04R
$$
CAZ011-012-071-060700-
SIERRA NEVADA MTNS

CITY           SKY/WX    TMP DP  RH WIND       PRES   REMARKS
BLUE CANYON    CLEAR     60  36  40 CALM      30.16S
TRUCKEE        CLEAR     46  37  71 CALM      30.19R
TAHOE VLY ARPT CLEAR     51  40  65 CALM      30.19S
MAMMOTH LAKES  FAIR      57  28  33 SE3       30.26S
$$


 

View Past Reports for Sacramento, CA.

Products Courtesy of NOAA-NWS
NWS Information Parsing Script by Ken True at Saratoga Weather - Script by SE Lincoln Weather.

powered by Cumulus v1.9.3 (1059)
Ambient Weather VWS v14.00
Top Website Map Copyright © 2007 - 2021 Foresthillweather.com Never base important decisions on this or any weather information obtained from the Internet